Blue Canyon, CA

5:11 PM PDT on April 30, 2017 (GMT -0700)
Blue Canyon-Nyack

Weather History for KBLU - November, 2011

Change the Weather History Date:

Tuesday, November 1, 2011

  Actual Average Record
Temperature  
Mean Temperature 48 °F -  
Max Temperature 55 °F 56 °F 78 °F (1949)
Min Temperature 42 °F 42 °F 23 °F (1956)
Degree Days  
Heating Degree Days 17    
Moisture  
Dew Point 9 °F    
Average Humidity 32    
Maximum Humidity 77    
Minimum Humidity 5    
Precipitation  
Precipitation 0.00 in - - ()
Sea Level Pressure  
Sea Level Pressure 30.04 in    
Wind  
Wind Speed 7 mph (ENE)    
Max Wind Speed 23 mph    
Max Gust Speed 45 mph    
Visibility 10 miles    
Events      
Averages and records for this station are not official NWS values.
T = Trace of Precipitation, MM = Missing Value Source: NWS Daily Summary

Daily Weather History Graph

Daily Weather History Graph

Search for Another Location

Airport or City:

Trip Planner

Search our weather history database for the weather conditions in past years. The results will help you decide how hot, cold, wet, or windy it might be!

Date:

Astronomy

Nov. 01, 2011 Rise Set
Actual Time 7:30 AM PDT 6:01 PM PDT
Civil Twilight 7:02 AM PDT 6:29 PM PDT
Nautical Twilight 6:31 AM PDT 7:01 PM PDT
Astronomical Twilight 5:59 AM PDT 7:32 PM PDT
Moon 1:19 PM PDT 11:50 PM PDT
Length of Visible Light 11h 26m
Length of Day
10h 31m
Waxing Crescent, 41% of the Moon is Illuminated
Nov 1
Waxing Crescent
Nov 2
First Quarter
Nov 10
Full
Nov 18
Last Quarter
Nov 24
New

Hourly Weather History & Observations

Time (PDT) Temp. Windchill Dew Point Humidity Pressure Visibility Wind Dir Wind Speed Gust Speed Precip Events Conditions
12:52 AM 50.0 °F - 43.0 °F 77% 29.96 in 10.0 mi Calm Calm - N/A   Clear
1:52 AM 48.9 °F - 42.1 °F 77% 29.95 in 10.0 mi Calm Calm - N/A   Clear
2:52 AM 48.9 °F - 41.0 °F 74% 29.96 in 10.0 mi Calm Calm - N/A   Clear
3:52 AM 48.9 °F - 42.1 °F 77% 29.94 in 10.0 mi Calm Calm - N/A   Clear
4:52 AM 46.9 °F - 39.0 °F 74% 29.96 in 10.0 mi NE 5.8 mph - N/A   Clear
5:52 AM 43.0 °F 38.2 °F 32.0 °F 65% 30.00 in 10.0 mi ENE 8.1 mph - N/A   Clear
6:52 AM 42.1 °F 36.6 °F 28.9 °F 60% 30.03 in 10.0 mi ENE 9.2 mph - N/A   Clear
7:52 AM 42.1 °F 36.6 °F 25.0 °F 51% 30.04 in 10.0 mi ENE 9.2 mph 17.3 mph N/A   Clear
8:52 AM 43.0 °F 36.0 °F 23.0 °F 45% 30.06 in 10.0 mi ENE 13.8 mph 28.8 mph N/A   Clear
9:52 AM 46.0 °F 41.4 °F 21.0 °F 37% 30.07 in 10.0 mi ENE 9.2 mph 16.1 mph N/A   Clear
10:52 AM 48.9 °F - 6.1 °F 18% 30.07 in 10.0 mi ENE 11.5 mph 24.2 mph N/A   Clear
11:52 AM 51.1 °F - 6.1 °F 16% 30.07 in 10.0 mi ENE 10.4 mph 18.4 mph N/A   Clear
12:52 PM 52.0 °F - 3.0 °F 14% 30.06 in 10.0 mi East 9.2 mph 21.9 mph N/A   Clear
1:52 PM 53.1 °F - -4.0 °F 10% 30.05 in 10.0 mi East 11.5 mph 23.0 mph N/A   Clear
2:52 PM 54.0 °F - -7.1 °F 8% 30.05 in 10.0 mi Variable 5.8 mph - N/A   Clear
3:52 PM 53.1 °F - -9.0 °F 8% 30.05 in 10.0 mi NE 12.7 mph 28.8 mph N/A   Clear
4:52 PM 51.1 °F - -9.9 °F 8% 30.05 in 10.0 mi ENE 13.8 mph 27.6 mph N/A   Clear
5:52 PM 48.9 °F - -17.0 °F 6% 30.06 in 10.0 mi ENE 15.0 mph 38.0 mph N/A   Clear
6:52 PM 48.9 °F - -20.0 °F 5% 30.08 in 10.0 mi ENE 13.8 mph 36.8 mph N/A   Clear
7:52 PM 46.9 °F - -14.1 °F 7% 30.08 in 10.0 mi ENE 23.0 mph 44.9 mph N/A   Clear
8:52 PM 45.0 °F 37.1 °F -11.0 °F 9% 30.09 in 10.0 mi East 19.6 mph 40.3 mph N/A   Clear
9:52 PM 46.0 °F 38.3 °F -17.0 °F 7% 30.09 in 10.0 mi ENE 20.7 mph 43.7 mph N/A   Clear
10:52 PM 46.0 °F 37.8 °F -15.0 °F 7% 30.09 in 10.0 mi East 23.0 mph 40.3 mph N/A   Clear
11:52 PM 46.0 °F 39.0 °F -18.0 °F 6% 30.10 in 10.0 mi East 17.3 mph 39.1 mph N/A   Clear